Tracking 19903 objects as of 17-Oct-2019
HD Live streaming from Space Station
objects crossing your sky now

IRIDIUM 33 DEB

Track IRIDIUM 33 DEB now!
10-day predictions


NORAD ID: 36495
Int'l Code: 1997-051WM
Perigee: 572.8 km
Apogee: 576.7 km
Inclination: 86.4 °
Period: 96.0 minutes
Semi major axis: 6945 km
RCS: 0.0009 m2 (small)
Launch date: September 14, 1997
Source: United States (US)
Launch site: TYURATAM MISSILE AND SPACE COMPLEX (TTMTR)

Note: This is SATELLITE DEBRIS
aabbcc
Your satellite tracking list
Your tracking list is empty




NASA's NSSDC Master Catalog

Two Line Element Set (TLE):
1 36495U 97051WM  19286.16245433  .00009677  00000-0  78050-3 0  9995
2 36495  86.3913 238.9302 0002821 193.8411 166.2744 14.99770685525509
Source of the keplerian elements: AFSPC